EDT,Max TemperatureF,Mean TemperatureF,Min TemperatureF,Max Dew PointF,MeanDew PointF,Min DewpointF,Max Humidity, Mean Humidity, Min Humidity, Max Sea Level PressureIn, Mean Sea Level PressureIn, Min Sea Level PressureIn, Max VisibilityMiles, Mean VisibilityMiles, Min VisibilityMiles, Max Wind SpeedMPH, Mean Wind SpeedMPH, Max Gust SpeedMPH,PrecipitationIn, CloudCover, Events, WindDirDegrees
2012-10-1,60,52,44,48,45,41,93,74,59,29.94,29.87,29.78,10.0,10.0,10.0,12,5,,0.00,2,Rain,51
2012-10-2,59,54,50,57,53,46,100,91,77,29.89,29.82,29.77,10.0,7.5,1.5,12,5,9,0.14,8,Rain,44
2012-10-3,64,58,53,59,54,50,100,88,64,30.08,29.99,29.89,10.0,6.8,1.8,15,7,18,0.00,7,Rain,175
2012-10-4,77,64,51,55,53,50,94,71,41,30.15,30.10,30.06,10.0,10.0,10.0,21,9,29,0.00,3,Rain,217
2012-10-5,55,46,37,54,43,36,100,92,81,30.18,30.13,30.07,10.0,8.0,2.5,12,7,17,0.52,8,Rain,276
2012-10-6,48,40,32,36,33,30,100,77,54,30.16,30.13,30.08,10.0,10.0,10.0,15,7,22,0.00,2,,278
2012-10-7,48,40,32,34,31,28,100,75,50,30.19,30.16,30.14,10.0,10.0,10.0,16,5,22,0.00,4,,261
2012-10-8,53,40,28,32,28,25,100,68,33,30.23,30.17,30.10,10.0,10.0,10.0,13,4,16,0.00,0,,199
2012-10-9,60,46,33,41,36,30,87,64,39,30.11,30.01,29.88,10.0,10.0,10.0,20,10,26,0.00,0,,194
2012-10-10,51,42,32,45,34,23,100,71,35,30.21,30.07,29.88,10.0,9.6,2.5,18,11,29,0.03,5,Rain,276
2012-10-11,59,46,32,36,32,28,93,64,36,30.25,30.20,30.13,10.0,10.0,10.0,21,8,25,0.00,0,,210
2012-10-12,55,45,35,43,33,25,82,62,31,30.43,30.33,30.16,10.0,10.0,10.0,12,8,17,0.00,2,,48
2012-10-13,62,48,35,61,46,28,100,80,58,30.32,30.10,29.91,10.0,8.3,2.5,16,9,20,0.39,5,Rain,164
2012-10-14,71,61,51,61,57,46,94,80,56,29.91,29.72,29.54,10.0,9.7,3.0,37,16,52,0.09,7,Rain,208
2012-10-15,55,47,39,46,41,37,100,77,51,29.98,29.89,29.79,10.0,9.7,4.0,14,9,21,0.00,5,Rain,286
2012-10-16,64,48,32,46,40,32,100,73,45,29.99,29.87,29.70,10.0,9.1,2.0,21,6,25,0.00,1,,146
2012-10-17,69,60,51,54,49,45,88,70,40,29.70,29.60,29.42,10.0,10.0,10.0,28,14,38,0.12,4,Rain,178
2012-10-18,59,52,44,54,42,30,100,74,36,29.64,29.52,29.39,10.0,9.4,5.0,28,18,36,0.49,5,Rain,225
2012-10-19,48,45,42,45,43,41,100,94,87,29.66,29.56,29.51,10.0,8.2,4.0,15,9,20,0.34,8,Rain,212
2012-10-20,53,46,39,43,41,37,100,88,67,29.96,29.82,29.66,10.0,9.4,5.0,14,9,20,0.00,5,,244
2012-10-21,66,49,32,50,41,32,100,84,49,30.10,30.04,29.96,10.0,7.2,0.2,10,6,,0.00,0,Fog,140
2012-10-22,71,58,44,61,54,43,100,84,53,30.08,30.01,29.93,10.0,9.5,3.0,25,7,30,0.43,5,Rain,161
2012-10-23,64,58,53,61,57,52,100,89,68,30.04,29.98,29.94,10.0,9.4,1.2,26,9,36,0.85,7,Rain,191
2012-10-24,77,66,55,61,57,54,94,76,54,30.04,29.99,29.96,10.0,10.0,10.0,16,9,18,0.00,2,,190
2012-10-25,77,65,53,59,55,46,88,69,50,29.97,29.91,29.83,10.0,10.0,10.0,26,13,33,0.00,2,,186
2012-10-26,50,42,35,45,36,32,100,77,62,30.29,30.19,29.98,10.0,9.4,3.0,17,12,24,0.11,5,Rain,340
2012-10-27,51,42,33,34,32,30,87,71,44,30.25,30.21,30.15,10.0,10.0,10.0,15,9,24,0.00,0,,4
2012-10-28,46,40,33,34,32,30,93,74,53,30.21,30.18,30.15,10.0,10.0,7.0,20,9,25,0.00,3,,6
2012-10-29,50,42,33,34,27,21,81,60,34,30.18,30.11,29.90,10.0,9.9,7.0,25,13,36,0.00,0,,346
2012-10-30,42,40,39,39,35,30,93,79,61,29.89,29.71,29.65,10.0,6.9,1.5,28,19,43,0.16,6,Rain,332
2012-10-31,41,37,33,37,33,30,93,81,65,29.83,29.77,29.69,10.0,9.4,5.0,14,10,23,0.00,8,Snow,297